Location: *
(46.1006°N, 1.8394°E)
Time: 19:21:11
(UTC+00:00)

KORONAS-FOTON - Pass Details

Date: 20 September 2019
Orbit: 505 x 533 km, 82.4° (Epoch: 20 October)

Event Time Altitude Azimuth Distance (km) Brightness Sun altitude
Rises 19:44:15 0° 355° (N) 2,625 7.8 -19.3°
Reaches altitude 10° 19:46:27 10° 2° (N) 1,732 6.7 -19.6°
Enters shadow 19:49:39 45° 51° (NE) 699 4.2 -20.1°
